Time,TemperatureF,DewpointF,PressureIn,WindDirection,WindDirectionDegrees,WindSpeedMPH,WindSpeedGustMPH,Humidity,HourlyPrecipIn,Conditions,Clouds,dailyrainin,SoftwareType,DateUTC
2014-10-02 00:01:00,61.4,60.0,30.01,NNE,19,21.0,31.0,94,0.00,,,0.00,weatherlink.com 1.10,2014-10-02 04:01:00,
2014-10-02 00:16:00,61.2,60.0,30.00,NE,36,25.0,29.0,94,0.00,,,0.00,weatherlink.com 1.10,2014-10-02 04:16:00,
2014-10-02 00:31:00,61.0,60.0,30.00,NE,47,24.0,28.0,95,0.00,,,0.00,weatherlink.com 1.10,2014-10-02 04:31:00,
2014-10-02 00:46:00,60.7,60.0,29.99,NNE,32,20.0,28.0,96,0.00,,,0.00,weatherlink.com 1.10,2014-10-02 04:46:00,
2014-10-02 01:01:00,60.6,60.0,30.00,NNE,15,20.0,29.0,96,0.00,,,0.00,weatherlink.com 1.10,2014-10-02 05:01:00,
2014-10-02 01:16:00,60.4,59.0,30.00,NE,37,21.0,33.0,96,0.00,,,0.00,weatherlink.com 1.10,2014-10-02 05:16:00,
2014-10-02 01:31:00,60.3,60.0,30.00,NNE,32,26.0,34.0,97,0.00,,,0.00,weatherlink.com 1.10,2014-10-02 05:31:00,
2014-10-02 01:46:00,60.3,60.0,30.00,NNE,25,20.0,30.0,97,0.00,,,0.00,weatherlink.com 1.10,2014-10-02 05:46:00,
2014-10-02 02:02:00,60.3,60.0,30.01,NNE,16,17.0,28.0,97,0.00,,,0.00,weatherlink.com 1.10,2014-10-02 06:02:00,
2014-10-02 02:16:00,60.2,59.0,30.01,NNE,33,22.0,30.0,97,0.00,,,0.00,weatherlink.com 1.10,2014-10-02 06:16:00,
2014-10-02 02:31:00,60.4,60.0,30.01,NNE,32,24.0,28.0,97,0.00,,,0.00,weatherlink.com 1.10,2014-10-02 06:31:00,
2014-10-02 02:46:00,60.3,60.0,30.01,NNE,26,28.0,29.0,97,0.00,,,0.00,weatherlink.com 1.10,2014-10-02 06:46:00,
2014-10-02 03:01:00,60.4,60.0,30.00,NNE,30,22.0,28.0,97,0.00,,,0.00,weatherlink.com 1.10,2014-10-02 07:01:00,
2014-10-02 03:16:00,60.4,60.0,30.01,NNE,15,26.0,28.0,97,0.00,,,0.00,weatherlink.com 1.10,2014-10-02 07:16:00,
2014-10-02 03:31:00,60.4,60.0,30.01,NNE,17,20.0,28.0,97,0.00,,,0.00,weatherlink.com 1.10,2014-10-02 07:31:00,
2014-10-02 03:46:00,60.5,59.0,30.01,NE,37,23.0,28.0,96,0.00,,,0.00,weatherlink.com 1.10,2014-10-02 07:46:00,
2014-10-02 04:01:00,60.6,59.0,30.01,North,11,21.0,29.0,95,0.00,,,0.00,weatherlink.com 1.10,2014-10-02 08:01:00,
2014-10-02 04:16:00,60.8,59.0,30.01,NNE,18,25.0,29.0,95,0.00,,,0.00,weatherlink.com 1.10,2014-10-02 08:16:00,
2014-10-02 04:31:00,60.9,59.0,30.02,NE,36,22.0,29.0,94,0.00,,,0.00,weatherlink.com 1.10,2014-10-02 08:31:00,
2014-10-02 04:47:00,61.0,59.0,30.02,NNE,15,22.0,30.0,94,0.00,,,0.00,weatherlink.com 1.10,2014-10-02 08:47:00,
2014-10-02 05:02:00,60.8,59.0,30.03,NE,37,20.0,28.0,94,0.00,,,0.00,weatherlink.com 1.10,2014-10-02 09:02:00,
2014-10-02 05:17:00,60.8,59.0,30.03,NNE,18,22.0,26.0,94,0.00,,,0.00,weatherlink.com 1.10,2014-10-02 09:17:00,
2014-10-02 05:32:00,60.3,59.0,30.04,NNE,20,24.0,26.0,95,0.00,,,0.00,weatherlink.com 1.10,2014-10-02 09:32:00,
2014-10-02 05:47:00,59.8,59.0,30.04,NNE,30,26.0,27.0,96,0.00,,,0.00,weatherlink.com 1.10,2014-10-02 09:47:00,
2014-10-02 06:02:00,59.5,59.0,30.05,NNE,18,22.0,27.0,97,0.00,,,0.00,weatherlink.com 1.10,2014-10-02 10:02:00,
2014-10-02 06:17:00,59.6,59.0,30.05,NNE,27,22.0,24.0,97,0.00,,,0.00,weatherlink.com 1.10,2014-10-02 10:17:00,
2014-10-02 06:32:00,59.6,59.0,30.05,NE,41,17.0,27.0,97,0.00,,,0.00,weatherlink.com 1.10,2014-10-02 10:32:00,
2014-10-02 06:47:00,59.5,59.0,30.05,NNE,30,26.0,28.0,97,0.00,,,0.00,weatherlink.com 1.10,2014-10-02 10:47:00,
2014-10-02 07:02:00,59.7,59.0,30.05,NNE,26,21.0,24.0,97,0.00,,,0.00,weatherlink.com 1.10,2014-10-02 11:02:00,
2014-10-02 07:17:00,59.3,59.0,30.05,NNE,22,20.0,27.0,97,0.00,,,0.00,weatherlink.com 1.10,2014-10-02 11:17:00,
2014-10-02 07:32:00,59.5,59.0,30.05,NNE,24,23.0,29.0,97,0.00,,,0.00,weatherlink.com 1.10,2014-10-02 11:32:00,
2014-10-02 07:47:00,59.5,59.0,30.05,NNE,20,26.0,28.0,97,0.00,,,0.00,weatherlink.com 1.10,2014-10-02 11:47:00,
2014-10-02 08:02:00,59.5,59.0,30.06,NNE,31,19.0,28.0,97,0.00,,,0.00,weatherlink.com 1.10,2014-10-02 12:02:00,
2014-10-02 08:17:00,59.6,59.0,30.06,NNE,18,23.0,27.0,97,0.00,,,0.00,weatherlink.com 1.10,2014-10-02 12:17:00,
2014-10-02 08:32:00,59.8,59.0,30.07,NE,41,24.0,28.0,96,0.00,,,0.00,weatherlink.com 1.10,2014-10-02 12:32:00,
2014-10-02 08:47:00,60.0,59.0,30.08,NE,36,25.0,30.0,96,0.00,,,0.00,weatherlink.com 1.10,2014-10-02 12:47:00,
2014-10-02 09:02:00,60.2,59.0,30.07,NNE,19,26.0,29.0,95,0.00,,,0.00,weatherlink.com 1.10,2014-10-02 13:02:00,
2014-10-02 09:17:00,60.4,58.0,30.07,NNE,19,26.0,32.0,92,0.00,,,0.00,weatherlink.com 1.10,2014-10-02 13:17:00,
2014-10-02 09:32:00,60.3,58.0,30.08,NE,36,26.0,30.0,92,0.00,,,0.00,weatherlink.com 1.10,2014-10-02 13:32:00,
2014-10-02 09:47:00,60.2,58.0,30.08,NNE,23,21.0,28.0,92,0.00,,,0.00,weatherlink.com 1.10,2014-10-02 13:47:00,
2014-10-02 10:02:00,60.2,58.0,30.08,NNE,30,21.0,26.0,91,0.00,,,0.00,weatherlink.com 1.10,2014-10-02 14:02:00,
2014-10-02 10:17:00,60.4,58.0,30.08,NNE,12,22.0,24.0,90,0.00,,,0.00,weatherlink.com 1.10,2014-10-02 14:17:00,
2014-10-02 10:32:00,60.5,58.0,30.08,NNE,31,17.0,25.0,90,0.00,,,0.00,weatherlink.com 1.10,2014-10-02 14:32:00,
2014-10-02 10:47:00,60.5,57.0,30.08,NNE,18,22.0,30.0,89,0.00,,,0.00,weatherlink.com 1.10,2014-10-02 14:47:00,
2014-10-02 11:02:00,60.7,58.0,30.08,NNE,23,29.0,31.0,89,0.00,,,0.00,weatherlink.com 1.10,2014-10-02 15:02:00,
2014-10-02 11:17:00,60.7,57.0,30.07,NNE,22,26.0,29.0,87,0.00,,,0.00,weatherlink.com 1.10,2014-10-02 15:17:00,
2014-10-02 11:32:00,60.5,57.0,30.08,NNE,16,24.0,30.0,89,0.00,,,0.00,weatherlink.com 1.10,2014-10-02 15:32:00,